Time,TemperatureF,DewpointF,PressureIn,WindDirection,WindDirectionDegrees,WindSpeedMPH,WindSpeedGustMPH,Humidity,HourlyPrecipIn,Conditions,Clouds,dailyrainin,SoftwareType,DateUTC
2013-04-22 00:04:00,34.9,28.5,30.76,East,90,0.0,0.0,77,0.00,,,0.00,WUHU216DAVISWMX,2013-04-22 04:04:00,
2013-04-22 00:09:00,34.8,28.4,30.76,East,90,0.0,0.0,77,0.00,,,0.00,WUHU216DAVISWMX,2013-04-22 04:09:00,
2013-04-22 00:14:00,34.7,28.3,30.76,East,90,0.0,0.0,77,0.00,,,0.00,WUHU216DAVISWMX,2013-04-22 04:14:00,
2013-04-22 00:19:00,34.5,28.4,30.76,East,90,0.0,0.0,78,0.00,,,0.00,WUHU216DAVISWMX,2013-04-22 04:19:00,
2013-04-22 00:24:00,34.4,28.3,30.76,East,90,0.0,0.0,78,0.00,,,0.00,WUHU216DAVISWMX,2013-04-22 04:24:00,
2013-04-22 00:29:00,34.4,28.3,30.76,East,90,0.0,0.0,78,0.00,,,0.00,WUHU216DAVISWMX,2013-04-22 04:29:00,
2013-04-22 00:34:00,34.3,28.5,30.76,East,90,0.0,0.0,79,0.00,,,0.00,WUHU216DAVISWMX,2013-04-22 04:34:00,
2013-04-22 00:39:00,34.2,28.1,30.76,East,90,0.0,0.0,78,0.00,,,0.00,WUHU216DAVISWMX,2013-04-22 04:39:00,
2013-04-22 00:44:00,34.1,28.3,30.76,East,90,0.0,0.0,79,0.00,,,0.00,WUHU216DAVISWMX,2013-04-22 04:44:00,
2013-04-22 00:49:00,34.0,28.5,30.76,East,90,0.0,0.0,80,0.00,,,0.00,WUHU216DAVISWMX,2013-04-22 04:49:00,
2013-04-22 00:54:00,33.9,28.1,30.76,East,90,0.0,0.0,79,0.00,,,0.00,WUHU216DAVISWMX,2013-04-22 04:54:00,
2013-04-22 00:59:00,33.9,28.4,30.76,East,90,0.0,0.0,80,0.00,,,0.00,WUHU216DAVISWMX,2013-04-22 04:59:00,
2013-04-22 01:04:00,33.8,28.3,30.76,East,90,0.0,0.0,80,0.00,,,0.00,WUHU216DAVISWMX,2013-04-22 05:04:00,
2013-04-22 01:09:00,33.8,28.3,30.76,East,90,0.0,0.0,80,0.00,,,0.00,WUHU216DAVISWMX,2013-04-22 05:09:00,
2013-04-22 01:14:00,33.7,28.2,30.76,East,90,0.0,0.0,80,0.00,,,0.00,WUHU216DAVISWMX,2013-04-22 05:14:00,
2013-04-22 01:19:00,33.7,27.9,30.76,East,90,0.0,0.0,79,0.00,,,0.00,WUHU216DAVISWMX,2013-04-22 05:19:00,
2013-04-22 01:24:00,33.6,28.1,30.76,East,90,0.0,0.0,80,0.00,,,0.00,WUHU216DAVISWMX,2013-04-22 05:24:00,
2013-04-22 01:29:00,33.5,27.7,30.75,East,90,0.0,0.0,79,0.00,,,0.00,WUHU216DAVISWMX,2013-04-22 05:29:00,
2013-04-22 01:34:00,33.5,28.0,30.76,East,90,0.0,0.0,80,0.00,,,0.00,WUHU216DAVISWMX,2013-04-22 05:34:00,
2013-04-22 01:39:00,33.4,27.9,30.76,East,90,0.0,0.0,80,0.00,,,0.00,WUHU216DAVISWMX,2013-04-22 05:39:00,
2013-04-22 01:44:00,33.5,28.0,30.75,East,90,0.0,0.0,80,0.00,,,0.00,WUHU216DAVISWMX,2013-04-22 05:44:00,
2013-04-22 01:49:00,33.4,27.9,30.76,East,90,0.0,0.0,80,0.00,,,0.00,WUHU216DAVISWMX,2013-04-22 05:49:00,
2013-04-22 01:54:00,33.3,28.1,30.75,East,90,0.0,0.0,81,0.00,,,0.00,WUHU216DAVISWMX,2013-04-22 05:54:00,
2013-04-22 01:59:00,33.4,28.2,30.76,East,90,0.0,0.0,81,0.00,,,0.00,WUHU216DAVISWMX,2013-04-22 05:59:00,
2013-04-22 02:04:00,33.3,28.1,30.76,East,90,0.0,0.0,81,0.00,,,0.00,WUHU216DAVISWMX,2013-04-22 06:04:00,
2013-04-22 02:09:00,33.2,28.0,30.76,East,90,0.0,0.0,81,0.00,,,0.00,WUHU216DAVISWMX,2013-04-22 06:09:00,
2013-04-22 02:14:00,33.1,27.9,30.76,East,90,0.0,0.0,81,0.00,,,0.00,WUHU216DAVISWMX,2013-04-22 06:14:00,
2013-04-22 02:19:00,33.1,28.2,30.76,East,90,0.0,0.0,82,0.00,,,0.00,WUHU216DAVISWMX,2013-04-22 06:19:00,
2013-04-22 02:24:00,33.0,28.1,30.76,East,90,0.0,0.0,82,0.00,,,0.00,WUHU216DAVISWMX,2013-04-22 06:24:00,
2013-04-22 02:29:00,32.8,28.2,30.76,East,90,0.0,0.0,83,0.00,,,0.00,WUHU216DAVISWMX,2013-04-22 06:29:00,
2013-04-22 02:34:00,32.8,27.9,30.77,East,90,0.0,0.0,82,0.00,,,0.00,WUHU216DAVISWMX,2013-04-22 06:34:00,
2013-04-22 02:39:00,32.7,27.8,30.77,East,90,0.0,0.0,82,0.00,,,0.00,WUHU216DAVISWMX,2013-04-22 06:39:00,
2013-04-22 02:44:00,32.6,27.7,30.76,East,90,0.0,0.0,82,0.00,,,0.00,WUHU216DAVISWMX,2013-04-22 06:44:00,
2013-04-22 02:49:00,32.5,27.6,30.76,East,90,0.0,0.0,82,0.00,,,0.00,WUHU216DAVISWMX,2013-04-22 06:49:00,
2013-04-22 02:54:00,32.4,27.5,30.76,East,90,0.0,0.0,82,0.00,,,0.00,WUHU216DAVISWMX,2013-04-22 06:54:00,
2013-04-22 02:59:00,32.2,27.6,30.76,East,90,0.0,0.0,83,0.00,,,0.00,WUHU216DAVISWMX,2013-04-22 06:59:00,
2013-04-22 03:04:00,32.3,27.7,30.76,East,90,0.0,0.0,83,0.00,,,0.00,WUHU216DAVISWMX,2013-04-22 07:04:00,
2013-04-22 03:09:00,32.2,27.9,30.76,East,90,0.0,0.0,84,0.00,,,0.00,WUHU216DAVISWMX,2013-04-22 07:09:00,
2013-04-22 03:14:00,32.2,27.9,30.76,East,90,0.0,0.0,84,0.00,,,0.00,WUHU216DAVISWMX,2013-04-22 07:14:00,
2013-04-22 03:19:00,32.1,27.8,30.76,East,90,0.0,0.0,84,0.00,,,0.00,WUHU216DAVISWMX,2013-04-22 07:19:00,
2013-04-22 03:24:00,32.1,27.8,30.76,East,90,0.0,0.0,84,0.00,,,0.00,WUHU216DAVISWMX,2013-04-22 07:24:00,
2013-04-22 03:29:00,32.0,27.7,30.76,East,90,0.0,0.0,84,0.00,,,0.00,WUHU216DAVISWMX,2013-04-22 07:29:00,
2013-04-22 03:34:00,31.9,27.3,30.76,East,90,0.0,0.0,83,0.00,,,0.00,WUHU216DAVISWMX,2013-04-22 07:34:00,
2013-04-22 03:39:00,31.8,27.5,30.76,East,90,0.0,0.0,84,0.00,,,0.00,WUHU216DAVISWMX,2013-04-22 07:39:00,
2013-04-22 03:44:00,31.7,27.4,30.77,East,90,0.0,0.0,84,0.00,,,0.00,WUHU216DAVISWMX,2013-04-22 07:44:00,
2013-04-22 03:49:00,31.6,27.3,30.77,East,90,0.0,0.0,84,0.00,,,0.00,WUHU216DAVISWMX,2013-04-22 07:49:00,
2013-04-22 03:54:00,31.5,27.5,30.77,East,90,0.0,0.0,85,0.00,,,0.00,WUHU216DAVISWMX,2013-04-22 07:54:00,
2013-04-22 03:59:00,31.5,27.5,30.77,East,90,0.0,0.0,85,0.00,,,0.00,WUHU216DAVISWMX,2013-04-22 07:59:00,
2013-04-22 04:04:00,31.5,27.5,30.78,East,90,0.0,0.0,85,0.00,,,0.00,WUHU216DAVISWMX,2013-04-22 08:04:00,
2013-04-22 04:09:00,31.4,27.1,30.78,East,90,0.0,0.0,84,0.00,,,0.00,WUHU216DAVISWMX,2013-04-22 08:09:00,
2013-04-22 04:14:00,31.2,27.2,30.78,East,90,0.0,0.0,85,0.00,,,0.00,WUHU216DAVISWMX,2013-04-22 08:14:00,
2013-04-22 04:19:00,31.3,27.3,30.78,East,90,0.0,0.0,85,0.00,,,0.00,WUHU216DAVISWMX,2013-04-22 08:19:00,
2013-04-22 04:24:00,31.1,26.8,30.78,East,90,0.0,0.0,84,0.00,,,0.00,WUHU216DAVISWMX,2013-04-22 08:24:00,
2013-04-22 04:29:00,31.0,27.0,30.78,East,90,0.0,0.0,85,0.00,,,0.00,WUHU216DAVISWMX,2013-04-22 08:29:00,
2013-04-22 04:34:00,31.0,27.0,30.78,East,90,0.0,0.0,85,0.00,,,0.00,WUHU216DAVISWMX,2013-04-22 08:34:00,
2013-04-22 04:39:00,30.9,27.2,30.78,East,90,0.0,0.0,86,0.00,,,0.00,WUHU216DAVISWMX,2013-04-22 08:39:00,
2013-04-22 04:44:00,30.8,27.1,30.79,East,90,0.0,0.0,86,0.00,,,0.00,WUHU216DAVISWMX,2013-04-22 08:44:00,
2013-04-22 04:49:00,30.8,27.1,30.79,East,90,0.0,0.0,86,0.00,,,0.00,WUHU216DAVISWMX,2013-04-22 08:49:00,
2013-04-22 04:54:00,30.8,27.1,30.79,East,90,0.0,0.0,86,0.00,,,0.00,WUHU216DAVISWMX,2013-04-22 08:54:00,
2013-04-22 04:59:00,30.7,26.7,30.79,East,90,0.0,0.0,85,0.00,,,0.00,WUHU216DAVISWMX,2013-04-22 08:59:00,
2013-04-22 05:04:00,30.6,26.9,30.79,East,90,0.0,0.0,86,0.00,,,0.00,WUHU216DAVISWMX,2013-04-22 09:04:00,
2013-04-22 05:10:00,30.5,26.8,30.79,East,90,0.0,0.0,86,0.00,,,0.00,WUHU216DAVISWMX,2013-04-22 09:10:00,
2013-04-22 05:15:00,30.5,26.8,30.79,East,90,0.0,0.0,86,0.00,,,0.00,WUHU216DAVISWMX,2013-04-22 09:15:00,
2013-04-22 05:20:00,30.5,27.1,30.80,East,90,0.0,0.0,87,0.00,,,0.00,WUHU216DAVISWMX,2013-04-22 09:20:00,
2013-04-22 05:25:00,30.5,26.8,30.80,East,90,0.0,0.0,86,0.00,,,0.00,WUHU216DAVISWMX,2013-04-22 09:25:00,
2013-04-22 05:30:00,30.5,26.8,30.80,East,90,0.0,0.0,86,0.00,,,0.00,WUHU216DAVISWMX,2013-04-22 09:30:00,
2013-04-22 05:35:00,30.3,26.6,30.80,East,90,0.0,0.0,86,0.00,,,0.00,WUHU216DAVISWMX,2013-04-22 09:35:00,
2013-04-22 05:40:00,30.3,26.9,30.80,East,90,0.0,0.0,87,0.00,,,0.00,WUHU216DAVISWMX,2013-04-22 09:40:00,
2013-04-22 05:45:00,30.3,26.9,30.80,East,90,0.0,0.0,87,0.00,,,0.00,WUHU216DAVISWMX,2013-04-22 09:45:00,
2013-04-22 05:50:00,30.3,26.9,30.80,East,90,0.0,0.0,87,0.00,,,0.00,WUHU216DAVISWMX,2013-04-22 09:50:00,
2013-04-22 05:55:00,30.2,26.8,30.80,East,90,0.0,0.0,87,0.00,,,0.00,WUHU216DAVISWMX,2013-04-22 09:55:00,
2013-04-22 06:00:00,30.1,26.7,30.80,East,90,0.0,0.0,87,0.00,,,0.00,WUHU216DAVISWMX,2013-04-22 10:00:00,
2013-04-22 06:05:00,30.1,26.7,30.81,East,90,0.0,0.0,87,0.00,,,0.00,WUHU216DAVISWMX,2013-04-22 10:05:00,
2013-04-22 06:10:00,30.1,26.9,30.81,East,90,0.0,0.0,88,0.00,,,0.00,WUHU216DAVISWMX,2013-04-22 10:10:00,
2013-04-22 06:15:00,30.2,27.0,30.81,East,90,0.0,0.0,88,0.00,,,0.00,WUHU216DAVISWMX,2013-04-22 10:15:00,
2013-04-22 06:20:00,30.4,27.2,30.81,East,90,0.0,0.0,88,0.00,,,0.00,WUHU216DAVISWMX,2013-04-22 10:20:00,
2013-04-22 06:25:00,30.4,27.2,30.81,East,90,0.0,0.0,88,0.00,,,0.00,WUHU216DAVISWMX,2013-04-22 10:25:00,
2013-04-22 06:30:00,30.4,27.2,30.81,East,90,0.0,0.0,88,0.00,,,0.00,WUHU216DAVISWMX,2013-04-22 10:30:00,
2013-04-22 06:35:00,30.6,27.4,30.81,East,90,0.0,0.0,88,0.00,,,0.00,WUHU216DAVISWMX,2013-04-22 10:35:00,
2013-04-22 06:40:00,30.7,27.8,30.81,East,90,0.0,0.0,89,0.00,,,0.00,WUHU216DAVISWMX,2013-04-22 10:40:00,
2013-04-22 06:45:00,30.9,28.0,30.81,East,90,0.0,0.0,89,0.00,,,0.00,WUHU216DAVISWMX,2013-04-22 10:45:00,
2013-04-22 06:50:00,31.1,27.9,30.81,East,90,0.0,1.0,88,0.00,,,0.00,WUHU216DAVISWMX,2013-04-22 10:50:00,
2013-04-22 06:55:00,31.3,28.1,30.81,East,91,0.0,1.0,88,0.00,,,0.00,WUHU216DAVISWMX,2013-04-22 10:55:00,
2013-04-22 07:00:00,31.6,28.4,30.81,East,91,0.0,1.0,88,0.00,,,0.00,WUHU216DAVISWMX,2013-04-22 11:00:00,
2013-04-22 07:05:00,31.8,28.6,30.81,East,91,0.0,1.0,88,0.00,,,0.00,WUHU216DAVISWMX,2013-04-22 11:05:00,
2013-04-22 07:10:00,32.0,28.8,30.81,East,91,0.0,1.0,88,0.00,,,0.00,WUHU216DAVISWMX,2013-04-22 11:10:00,
2013-04-22 07:15:00,32.3,29.1,30.81,East,91,0.0,0.0,88,0.00,,,0.00,WUHU216DAVISWMX,2013-04-22 11:15:00,
2013-04-22 07:20:00,32.6,29.4,30.82,East,91,0.0,0.0,88,0.00,,,0.00,WUHU216DAVISWMX,2013-04-22 11:20:00,
2013-04-22 07:25:00,32.9,29.4,30.82,East,91,0.0,0.0,87,0.00,,,0.00,WUHU216DAVISWMX,2013-04-22 11:25:00,
2013-04-22 07:30:00,33.2,29.4,30.81,East,91,0.0,0.0,86,0.00,,,0.00,WUHU216DAVISWMX,2013-04-22 11:30:00,
2013-04-22 07:35:00,33.4,29.9,30.81,East,91,0.0,0.0,87,0.00,,,0.00,WUHU216DAVISWMX,2013-04-22 11:35:00,
2013-04-22 07:40:00,33.7,29.9,30.82,East,91,0.0,0.0,86,0.00,,,0.00,WUHU216DAVISWMX,2013-04-22 11:40:00,
2013-04-22 07:45:00,34.0,30.2,30.81,East,91,0.0,0.0,86,0.00,,,0.00,WUHU216DAVISWMX,2013-04-22 11:45:00,
2013-04-22 07:50:00,34.4,30.3,30.81,East,91,0.0,0.0,85,0.00,,,0.00,WUHU216DAVISWMX,2013-04-22 11:50:00,
2013-04-22 07:55:00,34.8,30.2,30.81,East,91,0.0,0.0,83,0.00,,,0.00,WUHU216DAVISWMX,2013-04-22 11:55:00,
2013-04-22 08:00:00,35.3,30.4,30.81,East,91,0.0,0.0,82,0.00,,,0.00,WUHU216DAVISWMX,2013-04-22 12:00:00,
2013-04-22 08:05:00,35.9,30.0,30.81,East,80,0.0,2.0,79,0.00,,,0.00,WUHU216DAVISWMX,2013-04-22 12:05:00,
2013-04-22 08:10:00,36.6,30.4,30.81,ENE,75,2.0,2.0,78,0.00,,,0.00,WUHU216DAVISWMX,2013-04-22 12:10:00,
2013-04-22 08:15:00,37.5,30.7,30.81,North,5,0.0,4.0,76,0.00,,,0.00,WUHU216DAVISWMX,2013-04-22 12:15:00,
2013-04-22 08:20:00,38.1,30.9,30.81,North,9,2.0,4.0,75,0.00,,,0.00,WUHU216DAVISWMX,2013-04-22 12:20:00,
2013-04-22 08:25:00,38.7,31.2,30.80,ENE,64,0.0,3.0,74,0.00,,,0.00,WUHU216DAVISWMX,2013-04-22 12:25:00,
2013-04-22 08:30:00,39.4,31.9,30.81,ENE,61,1.0,3.0,74,0.00,,,0.00,WUHU216DAVISWMX,2013-04-22 12:30:00,
2013-04-22 08:35:00,40.1,32.5,30.81,ENE,69,5.0,5.0,74,0.00,,,0.00,WUHU216DAVISWMX,2013-04-22 12:35:00,
2013-04-22 08:40:00,40.7,32.8,30.81,ENE,61,1.0,5.0,73,0.00,,,0.00,WUHU216DAVISWMX,2013-04-22 12:40:00,
2013-04-22 08:45:00,41.3,32.7,30.80,ESE,112,1.0,4.0,71,0.00,,,0.00,WUHU216DAVISWMX,2013-04-22 12:45:00,
2013-04-22 08:50:00,41.9,33.6,30.80,ESE,112,1.0,3.0,72,0.00,,,0.00,WUHU216DAVISWMX,2013-04-22 12:50:00,
2013-04-22 08:55:00,42.7,33.7,30.80,NNE,31,3.0,5.0,70,0.00,,,0.00,WUHU216DAVISWMX,2013-04-22 12:55:00,
2013-04-22 09:00:00,43.3,33.5,30.80,NE,45,3.0,6.0,68,0.00,,,0.00,WUHU216DAVISWMX,2013-04-22 13:00:00,
2013-04-22 09:05:00,43.8,34.0,30.80,East,80,0.0,6.0,68,0.00,,,0.00,WUHU216DAVISWMX,2013-04-22 13:05:00,
2013-04-22 09:10:00,44.5,34.3,30.80,South,169,3.0,6.0,67,0.00,,,0.00,WUHU216DAVISWMX,2013-04-22 13:10:00,
2013-04-22 09:15:00,45.2,34.2,30.80,North,11,2.0,5.0,65,0.00,,,0.00,WUHU216DAVISWMX,2013-04-22 13:15:00,
2013-04-22 09:20:00,45.6,34.2,30.80,NNE,31,3.0,8.0,64,0.00,,,0.00,WUHU216DAVISWMX,2013-04-22 13:20:00,
2013-04-22 09:25:00,46.2,34.8,30.80,ESE,120,2.0,8.0,64,0.00,,,0.00,WUHU216DAVISWMX,2013-04-22 13:25:00,
2013-04-22 09:30:00,46.6,34.4,30.80,SE,139,1.0,8.0,62,0.00,,,0.00,WUHU216DAVISWMX,2013-04-22 13:30:00,
2013-04-22 09:35:00,47.0,34.7,30.80,NE,56,2.0,8.0,62,0.00,,,0.00,WUHU216DAVISWMX,2013-04-22 13:35:00,
2013-04-22 09:40:00,47.1,34.4,30.80,NE,38,4.0,5.0,61,0.00,,,0.00,WUHU216DAVISWMX,2013-04-22 13:40:00,
2013-04-22 09:45:00,47.5,34.8,30.80,South,178,6.0,9.0,61,0.00,,,0.00,WUHU216DAVISWMX,2013-04-22 13:45:00,
2013-04-22 09:50:00,48.1,35.0,30.80,ENE,65,4.0,9.0,60,0.00,,,0.00,WUHU216DAVISWMX,2013-04-22 13:50:00,
2013-04-22 09:55:00,48.5,34.5,30.81,SE,132,2.0,9.0,58,0.00,,,0.00,WUHU216DAVISWMX,2013-04-22 13:55:00,
2013-04-22 10:00:00,49.2,35.6,30.81,East,99,3.0,9.0,59,0.00,,,0.00,WUHU216DAVISWMX,2013-04-22 14:00:00,
2013-04-22 10:05:00,49.6,34.6,30.81,NE,48,2.0,6.0,56,0.00,,,0.00,WUHU216DAVISWMX,2013-04-22 14:05:00,
2013-04-22 10:10:00,50.0,35.4,30.82,ENE,65,3.0,6.0,57,0.00,,,0.00,WUHU216DAVISWMX,2013-04-22 14:10:00,
2013-04-22 10:15:00,50.1,34.1,30.82,SE,129,6.0,9.0,54,0.00,,,0.00,WUHU216DAVISWMX,2013-04-22 14:15:00,
2013-04-22 10:20:00,50.2,34.2,30.82,NE,54,2.0,9.0,54,0.00,,,0.00,WUHU216DAVISWMX,2013-04-22 14:20:00,
2013-04-22 10:25:00,50.3,33.8,30.83,SSW,201,2.0,9.0,53,0.00,,,0.00,WUHU216DAVISWMX,2013-04-22 14:25:00,
2013-04-22 10:30:00,50.6,35.5,30.83,ESE,104,5.0,10.0,56,0.00,,,0.00,WUHU216DAVISWMX,2013-04-22 14:30:00,
2013-04-22 10:35:00,50.4,34.4,30.83,SSE,148,4.0,10.0,54,0.00,,,0.00,WUHU216DAVISWMX,2013-04-22 14:35:00,
2013-04-22 10:40:00,49.8,34.3,30.83,ESE,117,0.0,8.0,55,0.00,,,0.00,WUHU216DAVISWMX,2013-04-22 14:40:00,
2013-04-22 10:45:00,49.8,35.2,30.82,SSE,156,4.0,8.0,57,0.00,,,0.00,WUHU216DAVISWMX,2013-04-22 14:45:00,
2013-04-22 10:50:00,50.4,36.3,30.81,SE,137,4.0,7.0,58,0.00,,,0.00,WUHU216DAVISWMX,2013-04-22 14:50:00,
2013-04-22 10:55:00,50.6,36.0,30.81,ESE,107,1.0,6.0,57,0.00,,,0.00,WUHU216DAVISWMX,2013-04-22 14:55:00,
2013-04-22 11:00:00,50.4,35.8,30.81,NE,39,10.0,10.0,57,0.00,,,0.00,WUHU216DAVISWMX,2013-04-22 15:00:00,
2013-04-22 11:05:00,50.3,35.3,30.80,North,5,4.0,10.0,56,0.00,,,0.00,WUHU216DAVISWMX,2013-04-22 15:05:00,
2013-04-22 11:10:00,50.3,35.3,30.80,SE,143,3.0,7.0,56,0.00,,,0.00,WUHU216DAVISWMX,2013-04-22 15:10:00,
2013-04-22 11:16:00,50.9,35.3,30.80,South,187,3.0,7.0,55,0.00,,,0.00,WUHU216DAVISWMX,2013-04-22 15:16:00,
2013-04-22 11:21:00,51.5,35.4,30.79,South,176,3.0,7.0,54,0.00,,,0.00,WUHU216DAVISWMX,2013-04-22 15:21:00,
2013-04-22 11:26:00,51.9,33.8,30.79,NNE,28,4.0,6.0,50,0.00,,,0.00,WUHU216DAVISWMX,2013-04-22 15:26:00,
2013-04-22 11:31:00,51.9,33.8,30.79,NE,49,3.0,6.0,50,0.00,,,0.00,WUHU216DAVISWMX,2013-04-22 15:31:00,
2013-04-22 11:36:00,52.0,32.9,30.78,South,187,1.0,7.0,48,0.00,,,0.00,WUHU216DAVISWMX,2013-04-22 15:36:00,
2013-04-22 11:41:00,52.3,32.6,30.78,ESE,109,1.0,7.0,47,0.00,,,0.00,WUHU216DAVISWMX,2013-04-22 15:41:00,
2013-04-22 11:46:00,52.5,33.8,30.78,SE,130,3.0,7.0,49,0.00,,,0.00,WUHU216DAVISWMX,2013-04-22 15:46:00,
2013-04-22 11:51:00,52.7,33.5,30.78,SSE,158,3.0,7.0,48,0.00,,,0.00,WUHU216DAVISWMX,2013-04-22 15:51:00,
2013-04-22 11:56:00,52.9,33.1,30.78,SE,126,3.0,8.0,47,0.00,,,0.00,WUHU216DAVISWMX,2013-04-22 15:56:00,
2013-04-22 12:01:00,53.0,33.2,30.77,SE,138,2.0,9.0,47,0.00,,,0.00,WUHU216DAVISWMX,2013-04-22 16:01:00,
2013-04-22 12:06:00,53.2,33.4,30.77,NNE,13,1.0,9.0,47,0.00,,,0.00,WUHU216DAVISWMX,2013-04-22 16:06:00,
2013-04-22 12:11:00,52.9,32.6,30.77,NNE,20,4.0,10.0,46,0.00,,,0.00,WUHU216DAVISWMX,2013-04-22 16:11:00,
2013-04-22 12:16:00,52.8,32.5,30.77,ENE,69,1.0,10.0,46,0.00,,,0.00,WUHU216DAVISWMX,2013-04-22 16:16:00,
2013-04-22 12:21:00,53.0,32.7,30.76,NNE,18,3.0,9.0,46,0.00,,,0.00,WUHU216DAVISWMX,2013-04-22 16:21:00,
2013-04-22 12:26:00,52.9,32.6,30.77,SSE,159,5.0,18.0,46,0.00,,,0.00,WUHU216DAVISWMX,2013-04-22 16:26:00,
2013-04-22 12:31:00,53.3,33.5,30.76,NE,35,4.0,18.0,47,0.00,,,0.00,WUHU216DAVISWMX,2013-04-22 16:31:00,
2013-04-22 12:36:00,53.3,33.0,30.75,NNE,27,2.0,8.0,46,0.00,,,0.00,WUHU216DAVISWMX,2013-04-22 16:36:00,
2013-04-22 12:41:00,53.5,32.6,30.76,NE,56,4.0,8.0,45,0.00,,,0.00,WUHU216DAVISWMX,2013-04-22 16:41:00,
2013-04-22 12:46:00,53.4,32.5,30.75,SSE,166,2.0,8.0,45,0.00,,,0.00,WUHU216DAVISWMX,2013-04-22 16:46:00,
2013-04-22 12:51:00,53.7,33.3,30.76,SSE,150,4.0,8.0,46,0.00,,,0.00,WUHU216DAVISWMX,2013-04-22 16:51:00,
2013-04-22 12:56:00,53.8,33.4,30.76,ESE,108,4.0,9.0,46,0.00,,,0.00,WUHU216DAVISWMX,2013-04-22 16:56:00,
2013-04-22 13:01:00,53.7,32.2,30.76,ENE,78,3.0,9.0,44,0.00,,,0.00,WUHU216DAVISWMX,2013-04-22 17:01:00,
2013-04-22 13:06:00,53.2,30.5,30.76,NE,41,3.0,9.0,42,0.00,,,0.00,WUHU216DAVISWMX,2013-04-22 17:06:00,
2013-04-22 13:11:00,53.3,32.4,30.76,East,92,2.0,8.0,45,0.00,,,0.00,WUHU216DAVISWMX,2013-04-22 17:11:00,
2013-04-22 13:16:00,53.6,33.8,30.76,SSE,168,1.0,9.0,47,0.00,,,0.00,WUHU216DAVISWMX,2013-04-22 17:16:00,
2013-04-22 13:21:00,53.9,32.9,30.76,SE,139,3.0,9.0,45,0.00,,,0.00,WUHU216DAVISWMX,2013-04-22 17:21:00,
2013-04-22 13:26:00,54.1,32.0,30.76,NE,34,4.0,6.0,43,0.00,,,0.00,WUHU216DAVISWMX,2013-04-22 17:26:00,
2013-04-22 13:31:00,53.9,31.8,30.75,NNE,23,1.0,10.0,43,0.00,,,0.00,WUHU216DAVISWMX,2013-04-22 17:31:00,
2013-04-22 13:36:00,54.0,34.2,30.75,ESE,107,2.0,10.0,47,0.00,,,0.00,WUHU216DAVISWMX,2013-04-22 17:36:00,
2013-04-22 13:41:00,54.2,32.6,30.75,ENE,61,1.0,7.0,44,0.00,,,0.00,WUHU216DAVISWMX,2013-04-22 17:41:00,
2013-04-22 13:46:00,54.2,32.1,30.76,NE,37,1.0,7.0,43,0.00,,,0.00,WUHU216DAVISWMX,2013-04-22 17:46:00,
2013-04-22 13:51:00,54.0,34.2,30.76,South,171,2.0,6.0,47,0.00,,,0.00,WUHU216DAVISWMX,2013-04-22 17:51:00,
2013-04-22 13:56:00,54.1,33.1,30.75,ENE,71,5.0,8.0,45,0.00,,,0.00,WUHU216DAVISWMX,2013-04-22 17:56:00,
2013-04-22 14:01:00,54.0,32.5,30.74,East,79,4.0,8.0,44,0.00,,,0.00,WUHU216DAVISWMX,2013-04-22 18:01:00,
2013-04-22 14:06:00,54.0,33.6,30.74,NE,56,7.0,8.0,46,0.00,,,0.00,WUHU216DAVISWMX,2013-04-22 18:06:00,
2013-04-22 14:11:00,54.0,32.5,30.74,NNE,30,0.0,7.0,44,0.00,,,0.00,WUHU216DAVISWMX,2013-04-22 18:11:00,
2013-04-22 14:16:00,54.2,33.2,30.74,South,181,1.0,7.0,45,0.00,,,0.00,WUHU216DAVISWMX,2013-04-22 18:16:00,
2013-04-22 14:21:00,53.9,33.5,30.73,SE,143,4.0,8.0,46,0.00,,,0.00,WUHU216DAVISWMX,2013-04-22 18:21:00,
2013-04-22 14:26:00,53.9,34.6,30.72,South,187,3.0,8.0,48,0.00,,,0.00,WUHU216DAVISWMX,2013-04-22 18:26:00,
2013-04-22 14:31:00,54.0,34.7,30.73,SE,129,8.0,8.0,48,0.00,,,0.00,WUHU216DAVISWMX,2013-04-22 18:31:00,
2013-04-22 14:36:00,53.8,33.4,30.72,East,99,5.0,10.0,46,0.00,,,0.00,WUHU216DAVISWMX,2013-04-22 18:36:00,
2013-04-22 14:41:00,53.4,31.9,30.72,East,95,12.0,12.0,44,0.00,,,0.00,WUHU216DAVISWMX,2013-04-22 18:41:00,
2013-04-22 14:46:00,53.4,33.0,30.72,ESE,118,8.0,12.0,46,0.00,,,0.00,WUHU216DAVISWMX,2013-04-22 18:46:00,
2013-04-22 14:51:00,53.4,33.0,30.72,NNE,21,4.0,12.0,46,0.00,,,0.00,WUHU216DAVISWMX,2013-04-22 18:51:00,
2013-04-22 14:56:00,53.3,34.6,30.72,SE,142,0.0,12.0,49,0.00,,,0.00,WUHU216DAVISWMX,2013-04-22 18:56:00,
2013-04-22 15:01:00,53.3,33.5,30.71,ENE,73,5.0,11.0,47,0.00,,,0.00,WUHU216DAVISWMX,2013-04-22 19:01:00,
2013-04-22 15:06:00,53.2,32.3,30.71,NNE,28,2.0,11.0,45,0.00,,,0.00,WUHU216DAVISWMX,2013-04-22 19:06:00,
2013-04-22 15:11:00,53.2,33.4,30.71,SE,126,0.0,7.0,47,0.00,,,0.00,WUHU216DAVISWMX,2013-04-22 19:11:00,
2013-04-22 15:16:00,53.0,32.1,30.71,NE,48,4.0,7.0,45,0.00,,,0.00,WUHU216DAVISWMX,2013-04-22 19:16:00,
2013-04-22 15:21:00,52.9,32.6,30.71,East,94,3.0,6.0,46,0.00,,,0.00,WUHU216DAVISWMX,2013-04-22 19:21:00,
2013-04-22 15:26:00,52.9,32.6,30.70,East,92,2.0,6.0,46,0.00,,,0.00,WUHU216DAVISWMX,2013-04-22 19:26:00,
2013-04-22 15:31:00,52.9,32.0,30.70,East,89,3.0,9.0,45,0.00,,,0.00,WUHU216DAVISWMX,2013-04-22 19:31:00,
2013-04-22 15:36:00,52.3,30.9,30.70,SSE,162,2.0,10.0,44,0.00,,,0.00,WUHU216DAVISWMX,2013-04-22 19:36:00,
2013-04-22 15:41:00,52.3,30.3,30.71,East,100,3.0,10.0,43,0.00,,,0.00,WUHU216DAVISWMX,2013-04-22 19:41:00,
2013-04-22 15:46:00,52.1,30.7,30.71,South,187,1.0,7.0,44,0.00,,,0.00,WUHU216DAVISWMX,2013-04-22 19:46:00,
2013-04-22 15:51:00,51.9,30.0,30.70,ESE,117,6.0,9.0,43,0.00,,,0.00,WUHU216DAVISWMX,2013-04-22 19:51:00,
2013-04-22 15:56:00,51.6,29.1,30.70,East,82,5.0,9.0,42,0.00,,,0.00,WUHU216DAVISWMX,2013-04-22 19:56:00,
2013-04-22 16:01:00,51.4,29.5,30.70,South,186,4.0,6.0,43,0.00,,,0.00,WUHU216DAVISWMX,2013-04-22 20:01:00,
2013-04-22 16:06:00,51.4,28.3,30.71,NNE,30,3.0,8.0,41,0.00,,,0.00,WUHU216DAVISWMX,2013-04-22 20:06:00,
2013-04-22 16:11:00,51.4,28.3,30.71,SE,124,2.0,8.0,41,0.00,,,0.00,WUHU216DAVISWMX,2013-04-22 20:11:00,
2013-04-22 16:16:00,51.1,27.4,30.71,SSE,154,1.0,9.0,40,0.00,,,0.00,WUHU216DAVISWMX,2013-04-22 20:16:00,
2013-04-22 16:21:00,51.2,28.7,30.71,SE,146,3.0,9.0,42,0.00,,,0.00,WUHU216DAVISWMX,2013-04-22 20:21:00,
2013-04-22 16:26:00,51.2,28.1,30.70,SE,140,3.0,8.0,41,0.00,,,0.00,WUHU216DAVISWMX,2013-04-22 20:26:00,
2013-04-22 16:31:00,51.2,28.7,30.70,East,97,2.0,8.0,42,0.00,,,0.00,WUHU216DAVISWMX,2013-04-22 20:31:00,
2013-04-22 16:36:00,51.1,27.4,30.70,SE,127,0.0,6.0,40,0.00,,,0.00,WUHU216DAVISWMX,2013-04-22 20:36:00,
2013-04-22 16:41:00,50.9,27.9,30.70,East,84,2.0,7.0,41,0.00,,,0.00,WUHU216DAVISWMX,2013-04-22 20:41:00,
2013-04-22 16:46:00,50.8,27.8,30.70,NNE,16,1.0,7.0,41,0.00,,,0.00,WUHU216DAVISWMX,2013-04-22 20:46:00,
2013-04-22 16:51:00,50.6,28.8,30.70,SSE,149,2.0,8.0,43,0.00,,,0.00,WUHU216DAVISWMX,2013-04-22 20:51:00,
2013-04-22 16:56:00,50.5,29.8,30.70,ENE,71,4.0,8.0,45,0.00,,,0.00,WUHU216DAVISWMX,2013-04-22 20:56:00,
2013-04-22 17:01:00,50.3,30.8,30.70,ENE,60,3.0,8.0,47,0.00,,,0.00,WUHU216DAVISWMX,2013-04-22 21:01:00,
2013-04-22 17:06:00,50.2,31.7,30.70,ENE,66,2.0,9.0,49,0.00,,,0.00,WUHU216DAVISWMX,2013-04-22 21:06:00,
2013-04-22 17:11:00,50.1,31.6,30.70,NNE,24,1.0,9.0,49,0.00,,,0.00,WUHU216DAVISWMX,2013-04-22 21:11:00,
2013-04-22 17:16:00,50.1,32.7,30.70,North,6,2.0,7.0,51,0.00,,,0.00,WUHU216DAVISWMX,2013-04-22 21:16:00,
2013-04-22 17:21:00,50.0,32.6,30.70,NE,42,0.0,7.0,51,0.00,,,0.00,WUHU216DAVISWMX,2013-04-22 21:21:00,
2013-04-22 17:26:00,50.0,32.6,30.70,NE,39,0.0,7.0,51,0.00,,,0.00,WUHU216DAVISWMX,2013-04-22 21:26:00,
2013-04-22 17:31:00,50.1,33.2,30.70,NNE,15,2.0,11.0,52,0.00,,,0.00,WUHU216DAVISWMX,2013-04-22 21:31:00,
2013-04-22 17:36:00,49.8,32.4,30.70,SE,128,0.0,11.0,51,0.00,,,0.00,WUHU216DAVISWMX,2013-04-22 21:36:00,
2013-04-22 17:41:00,49.8,32.4,30.70,SE,134,5.0,9.0,51,0.00,,,0.00,WUHU216DAVISWMX,2013-04-22 21:41:00,
2013-04-22 17:46:00,49.4,32.5,30.70,East,89,5.0,7.0,52,0.00,,,0.00,WUHU216DAVISWMX,2013-04-22 21:46:00,
2013-04-22 17:51:00,49.3,32.9,30.70,NE,54,4.0,7.0,53,0.00,,,0.00,WUHU216DAVISWMX,2013-04-22 21:51:00,
2013-04-22 17:56:00,49.3,33.9,30.70,ESE,118,5.0,11.0,55,0.00,,,0.00,WUHU216DAVISWMX,2013-04-22 21:56:00,
2013-04-22 18:01:00,49.1,33.2,30.69,SE,134,1.0,11.0,54,0.00,,,0.00,WUHU216DAVISWMX,2013-04-22 22:01:00,
2013-04-22 18:06:00,49.0,33.1,30.70,ENE,78,1.0,6.0,54,0.00,,,0.00,WUHU216DAVISWMX,2013-04-22 22:06:00,
2013-04-22 18:11:00,48.8,32.9,30.70,SE,128,1.0,8.0,54,0.00,,,0.00,WUHU216DAVISWMX,2013-04-22 22:11:00,
2013-04-22 18:16:00,48.6,33.2,30.70,ENE,61,1.0,8.0,55,0.00,,,0.00,WUHU216DAVISWMX,2013-04-22 22:16:00,
2013-04-22 18:21:00,48.4,33.9,30.70,SE,130,7.0,8.0,57,0.00,,,0.00,WUHU216DAVISWMX,2013-04-22 22:21:00,
2013-04-22 18:26:00,48.3,33.8,30.70,SE,125,8.0,8.0,57,0.00,,,0.00,WUHU216DAVISWMX,2013-04-22 22:26:00,
2013-04-22 18:31:00,47.9,34.3,30.70,ENE,57,1.0,9.0,59,0.00,,,0.00,WUHU216DAVISWMX,2013-04-22 22:31:00,
2013-04-22 18:36:00,47.7,35.0,30.70,NE,38,4.0,9.0,61,0.00,,,0.00,WUHU216DAVISWMX,2013-04-22 22:36:00,
2013-04-22 18:41:00,47.5,35.2,30.71,NE,46,3.0,7.0,62,0.00,,,0.00,WUHU216DAVISWMX,2013-04-22 22:41:00,
2013-04-22 18:46:00,47.0,34.7,30.71,NE,49,2.0,7.0,62,0.00,,,0.00,WUHU216DAVISWMX,2013-04-22 22:46:00,
2013-04-22 18:51:00,46.8,35.0,30.71,SSW,198,2.0,7.0,63,0.00,,,0.00,WUHU216DAVISWMX,2013-04-22 22:51:00,
2013-04-22 18:56:00,46.5,33.9,30.71,ESE,102,5.0,6.0,61,0.00,,,0.00,WUHU216DAVISWMX,2013-04-22 22:56:00,
2013-04-22 19:01:00,46.3,34.1,30.71,SE,137,2.0,6.0,62,0.00,,,0.00,WUHU216DAVISWMX,2013-04-22 23:01:00,
2013-04-22 19:06:00,46.1,34.3,30.71,NE,53,1.0,6.0,63,0.00,,,0.00,WUHU216DAVISWMX,2013-04-22 23:06:00,
2013-04-22 19:11:00,45.9,34.1,30.71,ENE,67,2.0,6.0,63,0.00,,,0.00,WUHU216DAVISWMX,2013-04-22 23:11:00,
2013-04-22 19:16:00,45.8,34.0,30.71,East,90,1.0,5.0,63,0.00,,,0.00,WUHU216DAVISWMX,2013-04-22 23:16:00,
2013-04-22 19:21:00,45.5,33.7,30.70,North,0,1.0,4.0,63,0.00,,,0.00,WUHU216DAVISWMX,2013-04-22 23:21:00,
2013-04-22 19:26:00,45.2,33.0,30.70,NE,48,0.0,5.0,62,0.00,,,0.00,WUHU216DAVISWMX,2013-04-22 23:26:00,
2013-04-22 19:32:00,44.8,32.7,30.70,SE,124,1.0,5.0,62,0.00,,,0.00,WUHU216DAVISWMX,2013-04-22 23:32:00,
2013-04-22 19:37:00,44.5,32.8,30.71,ESE,123,2.0,6.0,63,0.00,,,0.00,WUHU216DAVISWMX,2013-04-22 23:37:00,
2013-04-22 19:42:00,44.2,32.9,30.70,SSW,193,1.0,6.0,64,0.00,,,0.00,WUHU216DAVISWMX,2013-04-22 23:42:00,
2013-04-22 19:47:00,44.2,32.9,30.71,South,180,3.0,3.0,64,0.00,,,0.00,WUHU216DAVISWMX,2013-04-22 23:47:00,
2013-04-22 19:52:00,44.0,33.1,30.70,ENE,70,0.0,3.0,65,0.00,,,0.00,WUHU216DAVISWMX,2013-04-22 23:52:00,
2013-04-22 19:57:00,43.8,32.9,30.71,NNE,30,0.0,3.0,65,0.00,,,0.00,WUHU216DAVISWMX,2013-04-22 23:57:00,
2013-04-22 20:02:00,43.8,33.3,30.71,SE,125,2.0,3.0,66,0.00,,,0.00,WUHU216DAVISWMX,2013-04-23 00:02:00,
2013-04-22 20:07:00,43.7,33.6,30.70,SE,142,1.0,4.0,67,0.00,,,0.00,WUHU216DAVISWMX,2013-04-23 00:07:00,
2013-04-22 20:12:00,43.6,33.5,30.71,SE,142,0.0,4.0,67,0.00,,,0.00,WUHU216DAVISWMX,2013-04-23 00:12:00,
2013-04-22 20:17:00,43.4,33.3,30.70,NNE,21,2.0,2.0,67,0.00,,,0.00,WUHU216DAVISWMX,2013-04-23 00:17:00,
2013-04-22 20:22:00,43.3,33.5,30.70,SSE,151,1.0,4.0,68,0.00,,,0.00,WUHU216DAVISWMX,2013-04-23 00:22:00,
2013-04-22 20:27:00,43.0,33.6,30.70,ENE,65,0.0,4.0,69,0.00,,,0.00,WUHU216DAVISWMX,2013-04-23 00:27:00,
2013-04-22 20:32:00,43.0,33.2,30.70,ENE,76,0.0,3.0,68,0.00,,,0.00,WUHU216DAVISWMX,2013-04-23 00:32:00,
2013-04-22 20:37:00,42.9,33.5,30.70,ENE,76,1.0,2.0,69,0.00,,,0.00,WUHU216DAVISWMX,2013-04-23 00:37:00,
2013-04-22 20:42:00,42.8,33.8,30.70,ESE,105,2.0,3.0,70,0.00,,,0.00,WUHU216DAVISWMX,2013-04-23 00:42:00,
2013-04-22 20:47:00,42.7,33.7,30.71,ESE,116,0.0,4.0,70,0.00,,,0.00,WUHU216DAVISWMX,2013-04-23 00:47:00,
2013-04-22 20:52:00,42.6,33.6,30.70,ESE,116,0.0,4.0,70,0.00,,,0.00,WUHU216DAVISWMX,2013-04-23 00:52:00,
2013-04-22 20:57:00,42.5,33.8,30.71,ESE,116,0.0,1.0,71,0.00,,,0.00,WUHU216DAVISWMX,2013-04-23 00:57:00,
2013-04-22 21:02:00,42.3,33.6,30.70,ESE,115,0.0,1.0,71,0.00,,,0.00,WUHU216DAVISWMX,2013-04-23 01:02:00,
2013-04-22 21:07:00,42.2,33.9,30.70,ESE,115,0.0,1.0,72,0.00,,,0.00,WUHU216DAVISWMX,2013-04-23 01:07:00,
2013-04-22 21:12:00,42.1,33.8,30.70,ESE,115,0.0,0.0,72,0.00,,,0.00,WUHU216DAVISWMX,2013-04-23 01:12:00,
2013-04-22 21:17:00,42.0,33.7,30.70,ESE,115,0.0,0.0,72,0.00,,,0.00,WUHU216DAVISWMX,2013-04-23 01:17:00,
2013-04-22 21:22:00,41.9,33.6,30.71,ESE,115,0.0,0.0,72,0.00,,,0.00,WUHU216DAVISWMX,2013-04-23 01:22:00,
2013-04-22 21:27:00,41.7,33.8,30.71,NE,48,0.0,2.0,73,0.00,,,0.00,WUHU216DAVISWMX,2013-04-23 01:27:00,
2013-04-22 21:32:00,41.6,33.7,30.70,NE,48,0.0,2.0,73,0.00,,,0.00,WUHU216DAVISWMX,2013-04-23 01:32:00,
2013-04-22 21:37:00,41.5,33.9,30.70,NE,48,1.0,3.0,74,0.00,,,0.00,WUHU216DAVISWMX,2013-04-23 01:37:00,
2013-04-22 21:42:00,41.4,33.5,30.70,NE,48,0.0,5.0,73,0.00,,,0.00,WUHU216DAVISWMX,2013-04-23 01:42:00,
2013-04-22 21:47:00,41.3,33.4,30.70,NE,48,1.0,5.0,73,0.00,,,0.00,WUHU216DAVISWMX,2013-04-23 01:47:00,
2013-04-22 21:52:00,41.2,33.6,30.70,NE,48,0.0,2.0,74,0.00,,,0.00,WUHU216DAVISWMX,2013-04-23 01:52:00,
2013-04-22 21:57:00,41.1,33.5,30.70,NE,48,1.0,2.0,74,0.00,,,0.00,WUHU216DAVISWMX,2013-04-23 01:57:00,
2013-04-22 22:02:00,41.1,33.5,30.69,NE,48,0.0,2.0,74,0.00,,,0.00,WUHU216DAVISWMX,2013-04-23 02:02:00,
2013-04-22 22:07:00,41.1,33.8,30.69,NE,48,2.0,2.0,75,0.00,,,0.00,WUHU216DAVISWMX,2013-04-23 02:07:00,
2013-04-22 22:12:00,40.9,33.6,30.69,NE,48,0.0,2.0,75,0.00,,,0.00,WUHU216DAVISWMX,2013-04-23 02:12:00,
2013-04-22 22:17:00,40.8,33.9,30.69,NE,50,3.0,3.0,76,0.00,,,0.00,WUHU216DAVISWMX,2013-04-23 02:17:00,
2013-04-22 22:22:00,40.7,33.8,30.69,NE,46,1.0,3.0,76,0.00,,,0.00,WUHU216DAVISWMX,2013-04-23 02:22:00,
2013-04-22 22:27:00,40.4,33.8,30.69,NE,47,0.0,4.0,77,0.00,,,0.00,WUHU216DAVISWMX,2013-04-23 02:27:00,
2013-04-22 22:32:00,40.5,33.9,30.69,NE,44,2.0,4.0,77,0.00,,,0.00,WUHU216DAVISWMX,2013-04-23 02:32:00,
2013-04-22 22:37:00,40.4,34.1,30.68,NE,44,0.0,3.0,78,0.00,,,0.00,WUHU216DAVISWMX,2013-04-23 02:37:00,
2013-04-22 22:42:00,40.4,34.1,30.68,NE,44,0.0,1.0,78,0.00,,,0.00,WUHU216DAVISWMX,2013-04-23 02:42:00,
2013-04-22 22:47:00,40.4,33.8,30.68,NE,44,0.0,0.0,77,0.00,,,0.00,WUHU216DAVISWMX,2013-04-23 02:47:00,
2013-04-22 22:52:00,40.5,33.9,30.68,NE,44,0.0,0.0,77,0.00,,,0.00,WUHU216DAVISWMX,2013-04-23 02:52:00,
2013-04-22 22:57:00,40.5,34.2,30.68,NE,44,0.0,2.0,78,0.00,,,0.00,WUHU216DAVISWMX,2013-04-23 02:57:00,
2013-04-22 23:02:00,40.5,34.2,30.68,NE,44,0.0,2.0,78,0.00,,,0.00,WUHU216DAVISWMX,2013-04-23 03:02:00,
2013-04-22 23:07:00,40.4,34.1,30.68,NE,53,2.0,3.0,78,0.00,,,0.00,WUHU216DAVISWMX,2013-04-23 03:07:00,
2013-04-22 23:12:00,40.5,34.2,30.68,ENE,67,0.0,3.0,78,0.00,,,0.00,WUHU216DAVISWMX,2013-04-23 03:12:00,
2013-04-22 23:17:00,40.3,34.0,30.67,ENE,67,1.0,3.0,78,0.00,,,0.00,WUHU216DAVISWMX,2013-04-23 03:17:00,
2013-04-22 23:22:00,40.1,33.8,30.68,ENE,67,1.0,2.0,78,0.00,,,0.00,WUHU216DAVISWMX,2013-04-23 03:22:00,
2013-04-22 23:27:00,40.2,33.6,30.68,ENE,63,0.0,4.0,77,0.00,,,0.00,WUHU216DAVISWMX,2013-04-23 03:27:00,
2013-04-22 23:32:00,40.2,33.6,30.68,ENE,63,1.0,4.0,77,0.00,,,0.00,WUHU216DAVISWMX,2013-04-23 03:32:00,
2013-04-22 23:37:00,40.0,33.7,30.68,ENE,63,0.0,2.0,78,0.00,,,0.00,WUHU216DAVISWMX,2013-04-23 03:37:00,
2013-04-22 23:42:00,39.9,33.6,30.67,NE,54,0.0,3.0,78,0.00,,,0.00,WUHU216DAVISWMX,2013-04-23 03:42:00,
2013-04-22 23:47:00,39.7,33.4,30.67,NE,55,0.0,3.0,78,0.00,,,0.00,WUHU216DAVISWMX,2013-04-23 03:47:00,
2013-04-22 23:52:00,39.5,33.2,30.67,NE,55,0.0,3.0,78,0.00,,,0.00,WUHU216DAVISWMX,2013-04-23 03:52:00,
2013-04-22 23:57:00,39.4,33.1,30.67,NE,54,0.0,3.0,78,0.00,,,0.00,WUHU216DAVISWMX,2013-04-23 03:57:00,